Location: Unspecified
(0.0000°N, 0.0000°E)
Time: 05:44:10
(UTC+00:00)

A-11 Canister half - Visible Passes

Search period start: 18 June 2019 00:00
Search period end: 28 June 2019 00:00
Orbit: 1516 x 1684 km, 47.2° (Epoch: 16 June)

Date Brightness Start Highest point End Pass type
(mag) Time Alt. Az. Time Alt. Az. Time Alt. Az.
18 Jun 9.4 19:27:47 10° NNW 19:36:23 43° NE 19:39:52 32° E visible
18 Jun 10.1 21:32:40 10° WNW 21:38:05 32° W 21:38:05 32° W visible
19 Jun 9.5 19:05:03 10° NNW 19:13:29 39° NE 19:18:34 23° ESE visible
19 Jun 9.7 21:09:35 10° WNW 21:16:48 40° WSW 21:16:48 40° WSW visible
20 Jun 9.7 18:42:20 10° NNW 18:50:34 36° NE 18:57:17 15° ESE visible
20 Jun 9.4 20:46:32 10° WNW 20:55:13 46° SW 20:55:32 46° SW visible
21 Jun 11.0 05:30:52 10° SSE 05:36:19 16° SE 05:41:44 10° ESE visible
21 Jun 9.8 18:19:39 10° NNW 18:27:40 33° NE 18:35:40 10° ESE visible
21 Jun 9.4 20:23:30 10° WNW 20:32:19 51° SW 20:34:18 44° SSW visible
22 Jun 11.1 05:08:38 10° SSE 05:13:17 14° SE 05:17:55 10° ESE visible
22 Jun 9.3 20:00:29 10° NW 20:09:25 55° SW 20:13:05 37° S visible
23 Jun 11.1 04:46:36 10° SSE 04:50:15 12° SE 04:53:52 10° ESE visible
23 Jun 9.2 19:37:29 10° NW 19:46:32 60° SW 19:51:54 27° SSE visible
24 Jun 11.2 04:25:05 10° SSE 04:27:11 11° SE 04:29:18 10° SE visible
24 Jun 9.2 19:14:30 10° NW 19:23:38 66° SW 19:30:43 19° SSE visible
24 Jun 11.0 21:27:30 10° SW 21:28:57 10° SW 21:28:57 10° SW visible
25 Jun 9.1 18:51:32 10° NW 19:00:45 72° SW 19:09:32 12° SSE visible
25 Jun 10.9 21:02:53 10° WSW 21:06:01 12° SW 21:07:46 11° SSW visible
26 Jun 9.9 05:37:11 10° SSW 05:46:58 53° SE 05:56:43 10° NE visible
26 Jun 9.1 18:28:36 10° NW 18:37:51 78° SW 18:47:09 10° SE visible
26 Jun 10.9 20:38:55 10° WSW 20:43:02 13° SW 20:46:36 11° SSW visible
27 Jun 9.9 05:14:23 10° SSW 05:24:01 49° SE 05:33:38 10° ENE visible
27 Jun 10.8 20:15:12 10° WSW 20:20:02 15° SW 20:24:56 10° SSW visible
